Location: Buckenweiler
(49.0667°N, 10.2500°E)
Time: 21:05:29
(UTC+00:00)

Okean 1-7 - Pass Details

Date: 18 January 2026
Orbit: 566 x 588 km, 82.5° (Epoch: 17 February)

Event Time Altitude Azimuth Distance (km) Brightness Sun altitude
Exits shadow 04:51:39 - 358° (N) 2,338 5.9 -21.4°
Reaches altitude 10° 04:52:48 10° 2° (N) 1,885 5.5 -21.3°
Maximum altitude 04:56:47 44° 75° (ENE) 802 4.0 -20.6°
Drops below altitude 10° 05:00:46 10° 149° (SSE) 1,882 6.1 -20.0°
Sets 05:03:02 0° 155° (SSE) 2,780 6.9 -19.6°
